Regional Weather Roundup
Issued by NWS

Home | Current Version | Previous Version | Text Only | Print | Product List | Glossary On
Versions: 1 2 3 4 5 6 7 8 9 10 11 12 13 14 15 16 17 18 19 20 21 22 23 24 25 26 27
000
ASUS46 KSEW 291110
RWRWA

WASHINGTON REGIONAL WEATHER ROUNDUP
NATIONAL WEATHER SERVICE SEATTLE WA
400 AM PDT SUN MAY 29 2016

NOTE:"FAIR" INDICATES FEW OR NO CLOUDS BELOW 12,000 FEET WITH NO
SIGNIFICANT WEATHER AND/OR OBSTRUCTIONS TO VISIBILITY.

WAZ505-507>509-291200-
SEATTLE, TACOMA, EVERETT, AND VICINITY

CITY           SKY/WX    TMP DP  RH WIND       PRES   REMARKS
EVERETT        CLOUDY    53  50  89 CALM      30.05S
BOEING FIELD   CLOUDY    56  52  86 S8        30.05R
RENTON         CLOUDY    56  52  86 S7        30.05R
SEATAC AIRPORT CLOUDY    54  51  90 SW12      30.06R
JBLM-MCCHORD   MIX PCPN  53  53 100 SW6       30.06S FOG
PUYALLUP       MOCLDY    54  52  94 CALM      30.06S
BREMERTON      PTCLDY    50  48  93 S3        30.07R
JBLM-FT LEWIS  CLOUDY    52  52 100 S5        30.06R
TACOMA NARROWS CLOUDY    52  51  97 S8        30.06S
$$

WAZ001-503-506-510-514-515-291200-
NORTH INTERIOR

CITY           SKY/WX    TMP DP  RH WIND       PRES   REMARKS
BELLINGHAM     LGT RAIN  54  51  90 S9        30.02R
FRIDAY HARBOR  CLOUDY    50  48  93 CALM      30.03S
EASTSOUND      PTCLDY    52  50  93 S6        30.01R
PORT ANGELES   CLOUDY    50  47  89 SW6       30.05S
EDIZ HOOK      CLOUDY    51  47  85 W13       30.05S
PORT TOWNSEND  CLOUDY    52  52 100 W6        30.05R FOG
NAS WHIDBEY    CLOUDY    53  50  89 SW7       30.07S
ARLINGTON      CLOUDY    54  46  76 W3        30.06S
BURLINGTON     CLOUDY    54  52  94 CALM      30.04S FOG
$$

WAZ020-022-039-040-504-511-512-291200-
SOUTHWEST INTERIOR

CITY           SKY/WX    TMP DP  RH WIND       PRES   REMARKS
SHELTON        MOCLDY    52  49  89 W8        30.03S
OLYMPIA        CLOUDY    52  50  93 S6        30.06S
CHEHALIS       CLOUDY    48  48 100 CALM      30.07S
KELSO          PTCLDY    52  46  82 CALM      30.11S
VANCOUVER      CLOUDY    56  51  84 CALM      30.07S
SCAPPOOSE, OR  CLOUDY    51  48  89 W3        30.07S
PORTLAND, OR   CLOUDY    58  50  75 NW3       30.07F
$$

WAZ021-516-517-291200-
WASHINGTON COAST

CITY           SKY/WX    TMP DP  RH WIND       PRES   REMARKS
FORKS          CLOUDY    47  46  97 CALM      30.07R FOG
HOQUIAM        CLOUDY    54  53  97 SW6       30.06S
ASTORIA, OR    CLOUDY    54  52  93 CALM      30.08R
$$

WAZ019-023-024-040-518-519-291200-
CASCADE MOUNTAINS AND COLUMBIA GORGE

CITY           SKY/WX    TMP DP  RH WIND       PRES   REMARKS
STAMPEDE PASS  CLOUDY    41  39  93 W8        30.03S
TROUTDALE, OR  CLOUDY    59  50  72 CALM      30.07S
THE DALLES, OR PTCLDY    58  47  66 NW9       30.01S
$$

WAZ026-027-041>044-520-521-291200-
EAST SLOPES

CITY           SKY/WX    TMP DP  RH WIND       PRES   REMARKS
OMAK           CLOUDY    53  41  63 W5        29.94S
WENATCHEE      MOCLDY    55  44  66 NW14      29.97S
ELLENSBURG     PTCLDY    51  43  74 NW12      29.99S
YAKIMA         CLEAR     48  40  73 W3        29.98S
$$

WAZ028-034-035-291200-
COLUMBIA BASIN

CITY           SKY/WX    TMP DP  RH WIND       PRES   REMARKS
EPHRATA        PTCLDY    54  42  64 N3        29.95S
MOSES LAKE     CLEAR     48  38  68 NE5       29.96S
PASCO          PTCLDY    52  47  83 CALM      29.97S
HERMISTON, OR  PTCLDY    58  45  62 CALM      29.98S
$$

WAZ036>038-291200-
NORTHEAST WASHINGTON

CITY           SKY/WX    TMP DP  RH WIND       PRES   REMARKS
SPOKANE GEIGER MOCLDY    49  39  68 S9        29.98S
SPOKANE FELTS  PTCLDY    49  42  77 NE3       29.99F
FAIRCHILD AFB  CLOUDY    47  40  75 S5        29.97F
COEURDALENE,ID MOCLDY    46  41  81 E6        29.98F
DEER PARK      CLOUDY    46  41  82 NW3       29.99F
$$

WAZ029>033-291200-
SOUTHEAST WASHINGTON

CITY           SKY/WX    TMP DP  RH WIND       PRES   REMARKS
PULLMAN        PTCLDY    51  40  65 E5        30.02S
LEWISTON, ID   CLEAR     52  42  69 CALM      29.99F
WALLA WALLA    PTCLDY    58  41  53 S8        29.99S
PENDLETON, OR  PTCLDY    53  41  63 SE7       30.00S
$$




USA.gov is the U.S. government's official web portal to all federal, state and local government web resources and services.